This is the latest recevied weather packets stored in our database for station/object HK6RM-16. If no packets are shown the sender has not sent any weather packets the latest 10 day(s).
| Time | Temp. | Humidity | Pressure | Rain* | Wind** | Luminosity | Snow |
|---|---|---|---|---|---|---|---|
| 1777578608 | 17.78° C | 66% | 1009 hPa | 0 mm | - | - | - |
| 1777577647 | 17.78° C | 66% | 1009 hPa | 0 mm | - | - | - |
| 1777576686 | 18.33° C | 66% | 1009 hPa | 0 mm | - | - | - |
| 1777575725 | 17.78° C | 71% | 1009 hPa | 0 mm | - | - | - |
| 1777574764 | 18.33° C | 71% | 1009 hPa | 0 mm | - | - | - |
| 1777573804 | 18.89° C | 72% | 1009 hPa | 0 mm | - | - | - |
| 1777572843 | 18.89° C | 72% | 1010 hPa | 0 mm | - | - | - |
| 1777571883 | 18.33° C | 72% | 1010 hPa | 0 mm | - | - | - |
| 1777570922 | 18.33° C | 72% | 1010 hPa | 0 mm | - | - | - |
| 1777569962 | 18.89° C | 72% | 1011 hPa | 0 mm | - | - | - |
| 1777569001 | 19.44° C | 72% | 1011 hPa | 0 mm | - | - | - |
| 1777568039 | 18.89° C | 72% | 1011 hPa | 0 mm | - | - | - |
| 1777567079 | 18.89° C | 69% | 1011 hPa | 0 mm | - | - | - |
| 1777566118 | 18.89° C | 68% | 1012 hPa | 0 mm | - | - | - |
| 1777565158 | 19.44° C | 69% | 1012 hPa | 0 mm | - | - | - |
| 1777564198 | 20° C | 68% | 1012 hPa | 0 mm | - | - | - |
| 1777563237 | 17.78° C | 71% | 1012 hPa | 0 mm | - | - | - |
| 1777562275 | 17.78° C | 71% | 1013 hPa | 0 mm | - | - | - |
| 1777561314 | 18.33° C | 71% | 1013 hPa | 0 mm | - | - | - |
| 1777560352 | 17.22° C | 68% | 1013 hPa | 0 mm | - | - | - |
| 1777559392 | 17.22° C | 67% | 1014 hPa | 0 mm | - | - | - |
| 1777558431 | 17.78° C | 65% | 1014 hPa | 0 mm | - | - | - |
| 1777557471 | 17.78° C | 63% | 1014 hPa | 0 mm | - | - | - |
| 1777556510 | 17.78° C | 63% | 1014 hPa | 0 mm | - | - | - |
| 1777555550 | 18.33° C | 63% | 1014 hPa | 0 mm | - | - | - |
* Rain latest hour (hover to see other rain measurements)
** Current wind speed in m/s (hover to see current wind gust speed)